Stations météo

Publicité
Alencon, France (7139): Température de l'air & dewpoint: 25.10.2020 22:00:00 - 31.10.2020 22:00:00 (CET)Alencon, France (7139): Température de l'air 5cm: 25.10.2020 22:00:00 - 31.10.2020 22:00:00 (CET)Alencon, France (7139): Température de l'air -20cm & Température de l'air -100cm: 25.10.2020 22:00:00 - 31.10.2020 22:00:00 (CET)Alencon, France (7139): Vitesse du vent & gusts: 25.10.2020 22:00:00 - 31.10.2020 22:00:00 (CET)Alencon, France (7139): Direction du vent: 25.10.2020 22:00:00 - 31.10.2020 22:00:00 (CET)Alencon, France (7139): reduced air pressure: 25.10.2020 22:00:00 - 31.10.2020 22:00:00 (CET)Alencon, France (7139): visibility: 25.10.2020 22:00:00 - 31.10.2020 22:00:00 (CET)Alencon, France (7139): Ensoleillement: 25.10.2020 22:00:00 - 31.10.2020 22:00:00 (CET)Alencon, France (7139): Quantités de précipitations: 25.10.2020 22:00:00 - 31.10.2020 22:00:00 (CET)
Date & Time tt [°C] td [°C] tt 5cm [°C] tt -20cm [°C] tt -100cm [°C] ff [km/h] ff [knt] fx [km/h] fx [knt] dd ppp [hPa] vv [km] sd [min] rr [mm]
31.10.2020 22:00:00 11,8 10,7 11,1 12,9 13,4 11 6 16 9 SSW 1017,4 20 0 0,0
31.10.2020 21:00:00 12,2 11,1 10,6 12,8 13,4 9 5 20 11 S 1016,7 20 0 0,0
31.10.2020 20:00:00 12,7 11,4 11,2 12,8 13,4 10 5 19 11 SSW 1016,9 20 0 0,0
31.10.2020 19:00:00 13,6 12,2 12,9 12,8 13,4 14 8 22 12 SW 1016,6 20 0 0,0
31.10.2020 18:00:00 14,0 12,6 13,4 12,7 13,3 16 9 48 26 SW 1016,3 20 0 0,2
31.10.2020 17:00:00 15,2 14,6 14,4 12,7 13,4 21 11 37 20 SSW 1015,6 2,5 0 0,4
31.10.2020 16:00:00 15,2 14,1 13,9 12,7 13,4 21 12 35 19 S 1014,9 6 0 1,0
31.10.2020 15:00:00 15,3 13,0 14,0 12,5 13,4 21 11 43 23 S 1015,4 12 9 0,2
31.10.2020 14:00:00 16,2 12,4 15,1 12,5 13,4 25 13 42 23 S 1015,2 20 8 0,0
31.10.2020 13:00:00 13,8 11,3 13,9 12,4 13,3 20 11 40 22 S 1016,4 20 7 0,0
31.10.2020 12:00:00 12,0 10,4 13,2 12,5 13,4 19 11 32 17 S 1017,5 19 0 0,0
31.10.2020 11:00:00 11,7 10,6 10,9 12,5 13,4 16 9 29 16 S 1017,7 16 0 0,0
31.10.2020 10:00:00 10,2 9,4 10,2 12,6 13,4 10 6 22 12 S 1018,7 13 28 0,0
31.10.2020 09:00:00 9,4 8,9 7,5 12,6 13,3 5 3 14 8 S 1019,3 12 21 0,0
31.10.2020 08:00:00 8,9 8,3 7,6 12,7 13,4 7 4 17 9 S 1019,8 12 0 0,0
31.10.2020 07:00:00 9,5 8,9 8,2 12,7 13,3 8 4 18 10 SSE 1019,8 12 0 0,0
31.10.2020 06:00:00 10,2 9,4 9,2 12,7 13,3 11 6 19 10 S 1020,6 13 0 0,0
31.10.2020 05:00:00 11,0 10,1 10,7 12,8 13,3 10 5 19 10 SSE 1021,0 16 0 0,0
31.10.2020 04:00:00 11,3 10,4 10,7 12,8 13,4 9 5 16 8 SE 1021,4 17 0 0,0
31.10.2020 03:00:00 11,5 10,4 9,9 12,8 13,3 8 5 14 7 SSE 1022,4 18 0 0,0
31.10.2020 02:00:00 11,6 10,3 9,8 12,8 13,4 7 4 14 8 SSE 1022,6 19 0 0,0
31.10.2020 01:00:00 12,7 11,1 11,9 12,8 13,3 7 4 14 8 SSE 1023,3 20 0 0,0
31.10.2020 00:00:00 13,1 11,3 12,5 12,8 13,3 7 4 14 8 S 1023,3 19 0 0,0
30.10.2020 23:00:00 13,2 10,9 12,6 12,8 13,4 8 4 14 7 SSE 1023,7 20 0 0,0
30.10.2020 22:00:00 13,5 10,8 12,7 12,8 13,3 7 4 15 8 S 1024,2 20 0 0,0
30.10.2020 21:00:00 13,7 11,4 12,6 12,8 13,3 7 4 14 8 SSE 1024,1 20 0 0,0
30.10.2020 20:00:00 13,9 11,4 12,9 12,8 13,4 8 4 12 6 S 1024,2 20 0 0,0
30.10.2020 19:00:00 14,2 11,4 13,3 12,8 13,3 9 5 12 7 S 1024,3 20 0 0,0
30.10.2020 18:00:00 14,4 11,0 13,5 12,7 13,3 6 4 20 11 S 1024,1 20 0 0,0
30.10.2020 17:00:00 14,8 10,8 14,4 12,7 13,3 10 6 29 16 SSW 1023,7 20 0 0,0
30.10.2020 16:00:00 15,1 11,1 15,1 12,6 13,4 14 8 33 18 SW 1023,8 20 0 0,0
30.10.2020 15:00:00 14,8 11,0 14,9 12,5 13,4 18 10 32 17 SSW 1023,9 20 0 0,0
30.10.2020 14:00:00 15,1 11,1 15,1 12,5 13,3 18 10 30 16 SSW 1024,0 20 0 0,0
30.10.2020 13:00:00 14,6 11,6 14,6 12,4 13,3 28 15 44 24 SSW 1024,1 20 4 0,0
30.10.2020 12:00:00 14,6 12,3 13,6 12,4 13,4 17 9 30 16 SSW 1024,2 20 3 0,0
30.10.2020 11:00:00 13,5 12,2 13,0 12,3 13,3 18 10 30 16 SSW 1024,1 7 0 0,0
30.10.2020 10:00:00 14,5 11,3 13,6 12,4 13,4 14 8 25 13 SSW 1023,5 20 0 0,0
30.10.2020 09:00:00 13,8 11,3 12,8 12,3 13,3 16 9 29 16 S 1023,3 20 0 0,0
30.10.2020 08:00:00 13,6 11,6 12,5 12,3 13,3 20 11 32 17 SSW 1023,0 20 0 0,0
30.10.2020 07:00:00 13,4 11,8 12,4 12,3 13,3 18 10 28 15 S 1022,7 20 0 0,0
30.10.2020 06:00:00 13,2 12,1 12,4 12,3 13,4 16 9 30 16 SSW 1022,7 20 0 0,0
30.10.2020 05:00:00 13,7 11,7 12,9 12,3 13,3 15 8 32 18 SSW 1022,4 14 0 0,0
30.10.2020 04:00:00 13,7 11,7 13,1 12,3 13,4 16 9 27 15 SSW 1022,4 20 0 0,0
30.10.2020 03:00:00 13,7 11,9 13,0 12,3 13,4 16 9 31 17 S 1022,3 20 0 0,0
30.10.2020 02:00:00 13,7 11,7 12,7 12,3 13,4 18 10 31 17 SSW 1022,3 20 0 0,0
30.10.2020 01:00:00 13,6 12,0 12,7 12,2 13,4 18 10 28 15 SSW 1022,1 20 0 0,0
30.10.2020 00:00:00 13,5 12,1 12,6 12,2 13,4 16 9 26 14 SSW 1022,1 20 0 0,0
29.10.2020 23:00:00 13,3 12,2 11,9 12,2 13,4 16 8 26 14 S 1022,0 20 0 0,0
29.10.2020 22:00:00 13,3 11,7 12,3 12,1 13,4 24 13 39 21 SSW 1022,1 11 0 0,0
29.10.2020 21:00:00 14,0 12,2 12,9 12,1 13,4 19 11 29 16 SSW 1021,8 9 0 0,0
29.10.2020 20:00:00 14,2 11,5 13,1 12,0 13,4 19 11 35 19 SSW 1021,2 20 0 0,0
29.10.2020 19:00:00 14,5 11,8 13,2 12,0 13,4 22 12 39 21 SSW 1021,0 19 0 0,0
29.10.2020 18:00:00 14,1 12,5 13,0 11,9 13,4 13 7 26 14 S 1020,5 20 0 0,2
29.10.2020 17:00:00 14,7 12,4 14,3 11,9 13,4 15 8 27 15 S 1020,4 20 0 0,0
29.10.2020 16:00:00 15,0 11,9 13,9 11,8 13,4 21 11 34 18 SSW 1020,5 20 0 0,0
29.10.2020 15:00:00 14,5 12,7 13,8 11,7 13,4 13 7 31 17 SSW 1020,4 18 0 0,0
29.10.2020 14:00:00 14,2 12,2 13,3 11,6 13,4 16 9 36 19 S 1020,7 16 0 0,0
29.10.2020 13:00:00 14,3 11,4 14,1 11,6 13,4 18 10 37 20 SSW 1021,0 20 1 0,0
29.10.2020 12:00:00 13,3 11,0 13,2 11,6 13,4 16 8 29 16 S 1021,5 19 0 0,0
29.10.2020 11:00:00 12,2 10,9 11,5 11,6 13,5 10 6 17 9 S 1021,5 19 0 0,0
29.10.2020 10:00:00 11,4 10,6 10,7 11,6 13,4 10 6 17 9 S 1021,1 13 0 0,2
29.10.2020 09:00:00 10,9 9,5 9,7 11,7 13,4 6 3 15 8 S 1020,8 20 0 0,0
29.10.2020 08:00:00 10,7 8,8 9,5 11,7 13,4 10 6 24 13 S 1020,0 20 0 0,0
29.10.2020 07:00:00 10,6 8,5 9,5 11,6 13,4 15 8 25 14 SSW 1019,3 20 0 0,0
29.10.2020 06:00:00 10,7 9,0 9,4 11,7 13,5 15 8 27 14 SSW 1019,2 20 0 0,0
29.10.2020 05:00:00 10,5 8,8 9,2 11,7 13,5 13 7 22 12 SSW 1018,3 20 0 0,0
29.10.2020 04:00:00 10,6 8,5 9,2 11,7 13,4 11 6 28 15 SW 1017,6 20 0 0,0
29.10.2020 03:00:00 10,8 8,9 9,7 11,8 13,5 18 10 32 17 SSW 1017,2 20 0 0,0
29.10.2020 02:00:00 11,2 8,2 9,9 11,8 13,5 20 11 42 23 WSW 1016,8 20 0 0,0
29.10.2020 01:00:00 11,5 8,9 10,3 11,8 13,5 22 12 40 21 WSW 1016,4 20 0 0,0
29.10.2020 00:00:00 11,5 9,6 10,3 11,8 13,5 24 13 45 24 SW 1015,4 13 0 0,2
28.10.2020 23:00:00 12,3 9,1 11,4 11,8 13,5 24 13 39 21 SSW 1014,7 20 0 0,0
28.10.2020 22:00:00 12,3 9,3 11,5 11,8 13,5 27 14 48 26 SSW 1014,1 20 0 0,0
28.10.2020 21:00:00 12,4 9,2 11,5 11,7 13,5 22 12 37 20 SSW 1013,8 20 0 0,0
28.10.2020 20:00:00 12,4 9,2 11,6 11,7 13,5 23 12 44 24 SSW 1013,5 20 0 0,0
28.10.2020 19:00:00 12,8 9,6 11,9 11,7 13,5 25 14 48 26 SSW 1012,6 20 0 0,0
28.10.2020 18:00:00 13,0 9,4 11,9 11,7 13,5 29 16 51 28 SSW 1011,4 20 0 0,0
28.10.2020 17:00:00 13,0 9,8 11,1 11,6 13,5 29 15 45 24 SSW 1011,0 20 2 0,0
28.10.2020 16:00:00 13,0 9,6 11,2 11,5 13,5 29 16 50 27 SSW 1011,1 8 0 0,2
28.10.2020 15:00:00 13,4 10,4 11,5 11,5 13,5 25 13 44 24 SSW 1010,8 17 0 0,0
28.10.2020 14:00:00 12,1 10,7 11,1 11,4 13,5 13 7 44 24 WSW 1011,3 6 0 2,0
28.10.2020 13:00:00 13,4 9,6 13,7 11,4 13,5 29 16 49 26 SSW 1011,5 20 0 0,0
28.10.2020 12:00:00 13,1 9,9 12,4 11,4 13,6 24 13 40 22 SSW 1011,8 19 0 0,0
28.10.2020 11:00:00 12,0 9,7 11,7 11,4 13,5 19 11 34 19 S 1011,9 18 0 0,0
28.10.2020 10:00:00 10,9 9,3 10,0 11,4 13,6 18 10 28 15 S 1011,6 18 9 0,0
28.10.2020 09:00:00 10,1 8,5 8,7 11,5 13,6 15 8 27 15 S 1011,5 19 12 0,0
28.10.2020 08:00:00 9,6 8,4 8,4 11,5 13,6 12 6 29 16 S 1010,9 19 0 0,0
28.10.2020 07:00:00 9,4 8,3 7,9 11,6 13,6 18 10 27 15 S 1010,3 18 0 0,0
28.10.2020 06:00:00 9,6 8,4 8,1 11,6 13,6 13 7 21 11 S 1010,0 18 0 0,0
28.10.2020 05:00:00 9,8 8,6 7,9 11,7 13,6 14 7 23 12 S 1009,7 19 0 0,0
28.10.2020 04:00:00 9,6 8,2 8,1 11,7 13,6 15 8 23 12 SSW 1009,1 20 0 0,0
28.10.2020 03:00:00 10,2 8,5 9,0 11,7 13,6 15 8 27 14 SW 1009,3 20 0 0,0
28.10.2020 02:00:00 11,1 9,4 9,9 11,7 13,6 16 9 31 17 SW 1007,9 20 0 0,0
28.10.2020 01:00:00 11,7 10,3 10,5 11,7 13,6 13 7 28 15 SSW 1007,7 20 0 0,2
28.10.2020 00:00:00 12,2 10,8 11,1 11,6 13,6 16 9 27 15 SSW 1007,0 20 0 0,0
27.10.2020 23:00:00 11,9 11,0 10,5 11,6 13,7 9 5 17 9 SSW 1006,2 20 0 0,0
27.10.2020 22:00:00 12,0 10,7 10,6 11,6 13,7 11 6 25 13 SW 1006,3 20 0 0,0
27.10.2020 21:00:00 12,4 10,8 11,1 11,5 13,6 15 8 27 15 SSW 1005,3 20 0 0,0
27.10.2020 20:00:00 12,7 11,6 12,0 11,4 13,7 16 9 29 16 SW 1004,5 17 0 3,5
27.10.2020 19:00:00 12,7 11,9 11,9 11,3 13,6 6 4 44 24 W 1003,8 9 0 2,6
27.10.2020 18:00:00 14,1 12,8 13,2 11,3 13,7 26 14 44 24 SSW 1002,2 20 4 0,6
27.10.2020 17:00:00 13,5 13,2 12,6 11,2 13,7 19 10 42 23 S 1001,6 5 0 0,0
27.10.2020 16:00:00 12,7 12,4 12,0 11,1 13,7 21 12 44 24 S 1002,1 7 0 0,2
27.10.2020 15:00:00 11,9 11,6 11,3 11,1 13,7 21 12 41 22 S 1002,6 3,0 0 0,6
27.10.2020 14:00:00 11,1 10,6 10,8 11,0 13,7 20 11 38 20 S 1003,8 3,6 0 1,0
27.10.2020 13:00:00 10,4 9,9 10,1 11,0 13,7 22 12 43 23 S 1004,6 3,9 0 1,0
27.10.2020 12:00:00 9,8 9,3 9,7 11,0 13,7 23 12 36 20 SSE 1005,7 2,5 0 0,6
27.10.2020 11:00:00 9,5 9,2 8,8 11,1 13,7 19 11 32 17 S 1006,6 3,5 0 0,8
27.10.2020 10:00:00 8,6 8,3 8,0 11,1 13,7 14 8 29 16 SSE 1007,1 10 0 0,6
27.10.2020 09:00:00 7,9 7,6 7,1 11,1 13,7 10 6 20 11 SSE 1007,6 8 0 0,4
27.10.2020 08:00:00 7,2 6,9 6,7 11,2 13,7 10 5 19 10 S 1007,9 10 0 0,0
27.10.2020 07:00:00 7,1 6,7 6,4 11,3 13,7 7 4 14 7 SSE 1008,1 12 0 0,0
27.10.2020 06:00:00 6,8 6,5 5,4 11,4 13,8 9 5 15 8 SSE 1008,2 13 0 0,0
27.10.2020 05:00:00 6,3 6,0 5,1 11,5 13,8 6 4 14 8 SSE 1007,9 11 0 0,0
27.10.2020 04:00:00 6,2 5,8 4,5 11,5 13,8 8 4 19 11 SSE 1008,1 13 0 0,0
27.10.2020 03:00:00 6,6 6,2 3,7 11,6 13,8 7 4 17 9 SSW 1008,6 16 0 0,0
27.10.2020 02:00:00 7,1 6,0 5,9 11,6 13,8 13 7 21 12 SSW 1008,7 20 0 0,0
27.10.2020 01:00:00 7,8 6,6 6,7 11,7 13,8 14 8 24 13 SSW 1008,6 20 0 0,0
27.10.2020 00:00:00 8,2 7,0 7,2 11,7 13,8 12 7 25 13 SSW 1008,6 20 0 0,0
26.10.2020 23:00:00 8,5 7,1 7,2 11,8 13,8 13 7 26 14 SSW 1008,4 20 0 0,0
26.10.2020 22:00:00 8,2 7,3 6,1 11,8 13,8 7 4 21 12 SSW 1008,1 20 0 0,0
26.10.2020 21:00:00 8,7 7,3 7,9 11,8 13,8 11 6 20 11 WSW 1007,6 15 0 0,8
26.10.2020 20:00:00 8,5 7,6 6,9 11,9 13,8 6 3 14 7 W 1007,5 20 0 0,2
26.10.2020 19:00:00 9,2 8,3 7,0 11,8 13,8 10 5 17 9 W 1007,1 4,5 0 0,2
26.10.2020 18:00:00 9,0 7,8 7,0 11,8 13,8 8 5 17 9 S 1006,1 20 16 0,4
26.10.2020 17:00:00 9,4 7,5 8,6 11,7 13,8 7 4 33 18 W 1005,8 20 2 2,4
26.10.2020 16:00:00 11,8 7,5 11,4 11,6 13,8 12 6 37 20 SSW 1005,1 20 4 0,0
26.10.2020 15:00:00 12,0 7,1 11,7 11,6 13,8 29 15 44 24 SSW 1005,0 20 5 0,0
26.10.2020 14:00:00 12,3 6,3 12,9 11,5 13,8 22 12 42 23 SW 1005,1 20 18 0,0
26.10.2020 13:00:00 12,2 6,9 12,6 11,5 13,8 26 14 42 23 SW 1005,4 20 25 0,0
26.10.2020 12:00:00 11,8 7,7 11,5 11,5 13,8 21 12 37 20 SW 1005,8 20 19 0,0
26.10.2020 11:00:00 10,9 7,4 13,1 11,6 13,8 21 12 32 18 SSW 1005,7 20 57 0,0
26.10.2020 10:00:00 9,2 7,5 7,2 11,6 13,8 16 9 25 14 S 1005,6 20 57 0,0
26.10.2020 09:00:00 6,6 5,9 3,6 11,8 13,8 10 6 16 9 SSE 1005,5 20 60 0,0
26.10.2020 08:00:00 5,3 4,9 1,7 11,9 13,8 6 3 13 7 SSE 1005,0 19 0 0,0
26.10.2020 07:00:00 4,9 4,5 2,4 12,0 13,8 7 4 15 8 S 1004,3 19 0 0,0
26.10.2020 06:00:00 5,2 4,8 2,0 12,2 13,8 9 5 15 8 SE 1003,7 19 0 0,0
26.10.2020 05:00:00 6,0 5,1 4,3 12,3 13,8 9 5 20 11 S 1003,3 20 0 0,0
26.10.2020 04:00:00 6,5 5,6 4,9 12,3 13,8 11 6 22 12 S 1003,5 20 0 0,0
26.10.2020 03:00:00 7,0 5,9 5,2 12,4 13,8 12 7 24 13 S 1003,5 20 0 0,0
26.10.2020 02:00:00 7,4 6,2 6,2 12,5 13,8 17 9 28 15 SSW 1003,3 20 0 0,0
26.10.2020 01:00:00 8,0 6,9 6,7 12,6 13,8 12 6 31 17 S 1003,2 20 0 0,0
26.10.2020 00:00:00 8,4 7,8 5,5 12,7 13,9 18 10 29 16 S 1003,3 20 0 0,0
25.10.2020 23:00:00 8,2 7,6 6,5 12,8 13,8 4 2 9 5 SSE 1003,3 19 0 0,0
25.10.2020 22:00:00 8,2 7,6 4,8 12,9 13,8 4 2 14 7 ESE 1003,1 20 0 0,0

tt = Température de l'air
td = dewpoint
tt 5cm = Température de l'air 5cm
tt -20cm = Température de l'air -20cm
tt -100cm = Température de l'air -100cm
ff = Vitesse du vent
fx = gusts
dd = Direction du vent
ppp = reduced air pressure
vv = visibility
sd = Ensoleillement
rr = Quantités de précipitations

stations d'obs. à proximité